Vorticity
4 5 7 8 8 8 8 9 8 9 9 8 8 8 8 7 7 7 7 7 8 8 7 8 8 8 7 6 6 7 7 7 6 5 4 3 8 14 11 5 2 2 1 0 2 2 3 2 1 2 2 3 3 3 5 3 3 4 5 4 5 7 5 7 10 9 7 8 18 14 -2 4 9 4 8 5 4 7 5 4 6 6 7 9 8 5 5 6
4 5 6 7 8 8 8 8 9 9 9 10 9 8 8 8 8 7 7 7 7 8 8 8 8 9 8 7 6 6 6 6 7 6 5 5 5 9 11 10 6 4 2 1 2 1 1 -0 -0 1 2 5 5 4 4 4 4 4 6 5 5 6 6 8 7 6 8 13 20 14 8 12 9 5 7 5 5 5 5 6 6 7 9 9 6 6 7 6
4 5 5 6 7 8 7 8 8 8 8 9 9 9 9 9 9 8 8 7 7 7 8 8 8 8 8 8 7 6 7 6 6 7 7 6 5 6 7 9 10 9 6 4 3 2 0 -0 0 0 2 3 3 3 3 5 4 3 6 4 5 7 7 6 8 12 15 23 29 22 17 12 5 6 5 5 6 3 6 8 4 7 11 7 4 6 7 6
5 5 5 6 6 7 7 7 7 7 8 7 8 9 10 10 10 9 8 8 8 7 7 8 9 9 8 8 7 7 7 6 5 5 6 8 7 5 5 6 8 9 9 8 7 6 4 4 4 2 1 1 1 2 2 4 4 4 5 4 5 8 9 10 13 16 20 28 35 28 14 4 4 8 6 5 6 5 6 8 5 7 9 6 4 6 6 5
5 6 6 6 6 6 6 6 6 6 7 7 8 9 9 11 11 11 10 9 8 7 7 7 8 10 10 8 7 8 6 6 10 9 5 7 8 6 5 6 6 7 8 8 8 8 8 8 8 7 4 1 1 2 2 3 3 4 5 4 4 7 11 12 8 12 40 54 36 22 11 4 8 8 7 3 4 9 6 9 8 6 8 4 5 6 4 4
6 6 6 6 6 5 6 6 6 6 7 8 8 9 9 10 11 11 11 12 9 9 8 7 8 8 10 11 7 8 5 2 9 13 9 7 7 7 6 6 7 6 5 6 6 6 7 9 9 10 8 5 4 3 4 4 3 3 3 3 3 8 10 7 4 6 44 60 22 10 11 6 9 7 8 3 3 10 6 9 10 6 8 4 5 6 2 4
6 6 6 6 5 5 5 6 6 6 7 8 8 8 9 9 10 10 11 12 11 11 9 8 8 7 9 11 10 9 5 3 6 7 10 9 5 7 7 7 7 6 6 5 5 5 6 7 7 10 10 9 8 5 5 5 4 3 2 3 2 8 8 3 4 1 25 34 1 2 11 4 8 8 10 8 7 9 5 8 9 6 7 4 5 5 3 6
6 6 6 5 5 6 6 6 6 7 7 7 7 8 8 9 9 10 11 11 12 13 12 10 9 9 9 9 12 8 4 9 9 3 7 9 6 6 7 7 8 6 7 6 5 5 4 6 6 6 8 11 11 7 7 7 7 5 2 5 4 5 7 2 2 5 18 17 -6 -0 10 6 8 8 8 10 11 8 5 8 8 6 8 7 6 5 6 6
6 6 6 6 6 7 7 7 7 7 7 8 8 9 9 10 10 10 11 11 12 13 13 12 10 10 9 10 11 7 6 11 10 6 6 7 7 7 6 7 8 6 7 7 6 5 4 5 4 5 7 10 10 6 9 12 8 8 5 3 2 3 4 4 4 7 10 8 5 6 7 8 8 8 7 7 10 6 6 8 6 6 7 8 7 5 6 5
6 6 6 7 8 8 8 8 8 8 8 9 8 10 10 10 10 10 10 11 11 12 13 14 12 11 10 11 9 5 11 12 9 11 8 6 8 7 6 6 7 7 6 7 7 6 6 5 3 5 5 7 9 5 9 14 9 8 9 4 1 1 2 4 3 7 10 9 14 8 -0 7 9 8 8 7 7 4 7 9 5 7 7 8 9 6 5 3
6 7 7 8 9 9 9 9 9 9 9 9 9 10 10 10 10 10 10 11 10 11 12 13 14 12 10 11 8 8 13 10 10 13 9 7 8 7 8 6 7 8 6 7 7 6 6 5 4 4 3 3 4 3 5 10 7 3 7 9 7 4 3 4 2 7 11 5 10 3 -6 6 9 9 10 6 6 3 6 9 5 5 5 6 8 7 5 3
7 8 9 9 9 9 9 9 9 9 9 9 9 10 10 10 11 11 11 12 12 12 12 13 15 14 12 10 9 11 11 8 10 12 10 9 7 8 9 6 7 8 7 6 6 6 7 7 5 3 3 3 0 2 5 8 8 2 4 10 9 6 4 4 3 5 6 3 10 5 -6 3 8 12 14 6 5 5 4 7 6 5 5 5 6 7 6 6
8 9 10 9 9 9 9 9 9 9 9 9 10 10 11 11 12 13 14 14 14 13 13 14 15 15 12 12 13 13 11 10 11 11 12 11 8 8 8 8 7 7 8 7 7 7 7 8 7 3 3 4 1 0 3 9 14 6 3 10 10 11 9 5 3 3 5 4 8 7 -1 4 5 7 13 10 6 5 5 7 5 4 6 5 4 7 8 8
9 9 10 9 9 9 9 9 9 9 10 10 11 11 12 13 14 14 16 17 17 17 17 17 18 16 14 14 14 13 13 13 12 11 13 12 10 8 7 9 7 7 7 6 8 8 7 10 8 7 7 4 1 0 2 10 18 9 3 9 12 12 12 8 5 5 6 4 6 9 4 1 2 5 10 12 7 4 4 6 5 4 6 6 5 6 8 10
9 10 9 9 9 9 9 9 10 10 11 12 12 13 13 15 15 17 20 20 19 20 20 20 20 18 16 16 16 15 14 13 12 12 12 11 11 9 8 8 8 8 8 7 7 6 7 9 8 9 9 5 3 1 1 3 13 15 5 6 10 9 10 10 8 5 3 3 6 7 1 -1 4 5 6 11 10 6 3 5 7 5 4 5 6 6 7 10
10 10 9 9 9 9 10 10 11 12 13 13 12 13 15 16 17 19 21 20 21 21 21 21 21 21 19 18 17 16 15 14 14 13 12 11 11 11 9 9 9 8 8 8 6 5 4 5 6 7 8 9 7 4 3 3 8 14 8 6 9 8 9 11 9 5 3 5 8 3 1 8 12 5 2 8 10 8 5 4 7 6 5 5 5 6 6 8
10 9 9 9 9 9 10 11 13 13 13 13 13 14 16 18 19 19 21 20 20 20 19 20 20 21 20 19 18 17 18 17 15 14 12 11 11 12 11 9 10 8 8 9 7 6 5 4 4 4 8 9 10 9 6 7 8 9 7 4 8 9 7 9 10 10 6 2 5 5 3 8 11 2 -2 6 9 10 8 3 4 5 5 5 4 7 6 5
10 9 9 10 10 10 11 13 14 14 14 13 13 14 16 17 18 19 20 19 18 18 18 19 18 18 18 19 19 17 18 17 16 16 14 12 11 11 12 10 10 9 8 8 9 7 5 6 3 4 8 4 9 13 6 9 9 8 9 2 3 7 3 8 12 14 13 4 2 7 5 5 6 0 -3 3 7 9 10 5 3 6 5 5 5 5 5 5
10 9 10 10 10 11 13 14 15 14 13 13 12 12 13 15 17 18 18 16 17 17 16 16 17 17 15 17 18 17 16 16 16 15 14 14 11 11 12 11 11 11 9 8 9 9 6 6 4 3 6 3 6 9 6 14 11 4 10 6 1 0 1 12 14 13 19 11 5 6 5 8 9 7 4 2 5 7 10 9 3 5 7 6 6 4 5 5
9 9 10 11 11 12 14 15 15 13 12 11 10 11 12 14 15 16 14 13 13 13 14 14 14 15 14 15 16 17 17 15 15 15 15 15 12 11 12 12 11 10 11 9 8 10 8 7 5 3 5 5 9 10 0 9 14 1 2 8 4 -1 3 15 12 9 17 13 10 9 5 11 12 10 9 1 3 5 7 14 8 4 6 6 6 2 6 6
10 10 11 12 13 13 14 16 14 12 12 11 10 11 14 13 13 13 11 11 10 10 11 11 11 13 14 15 15 16 17 16 15 15 15 15 13 12 12 12 12 11 12 10 8 9 7 7 6 4 5 4 11 13 -3 4 17 -2 -6 12 12 2 2 13 10 6 17 10 6 12 2 6 14 13 14 4 2 7 3 8 10 8 6 5 8 3 4 8
10 10 12 12 13 13 15 15 13 12 12 11 11 13 14 12 11 10 10 10 10 10 10 10 11 11 12 13 14 15 17 16 16 14 15 15 14 13 12 11 10 11 12 10 9 8 8 8 6 5 6 6 8 7 1 9 16 -5 -11 7 14 8 3 10 5 2 22 11 4 32 19 2 13 12 15 13 6 8 3 2 8 10 8 3 7 7 4 6
10 11 12 12 13 15 15 14 13 14 13 12 13 12 12 11 10 11 12 13 13 14 13 12 13 13 13 13 14 15 15 16 16 14 14 14 13 12 12 13 12 11 11 11 10 9 10 9 8 7 5 5 3 2 5 6 12 11 -5 -6 9 13 6 10 3 -4 19 7 -7 31 27 5 20 14 12 24 15 9 5 2 5 7 10 7 4 6 5 6
10 12 12 11 13 14 15 14 14 14 13 12 13 12 11 10 9 11 12 15 16 17 17 16 16 17 16 15 15 16 13 13 16 15 14 12 13 15 14 13 12 11 11 10 10 8 10 10 9 11 7 2 0 4 10 2 11 19 -6 -13 11 18 14 14 5 -1 14 8 -8 7 5 1 21 17 14 24 16 12 11 4 4 5 9 9 6 6 5 7
10 12 12 11 12 14 15 14 14 14 14 13 12 11 11 8 9 12 16 21 16 14 20 18 16 18 19 18 16 18 16 13 15 15 16 14 10 10 13 12 8 12 13 10 13 7 8 16 5 4 12 7 1 2 5 3 8 13 -1 -3 4 14 32 22 -0 2 10 11 9 7 1 -3 5 13 19 22 15 14 15 6 2 3 6 7 7 9 9 7
10 12 12 10 12 15 15 14 14 15 13 12 10 10 10 9 13 16 23 25 6 5 22 19 14 17 19 21 18 20 21 19 18 15 16 17 9 6 12 13 7 11 11 7 14 5 6 25 7 -5 10 9 5 5 4 3 -3 5 16 11 -3 -3 21 17 -6 -1 6 8 14 9 4 1 2 10 12 15 22 21 15 10 6 4 3 4 5 7 11 12
10 12 12 10 12 15 15 15 15 14 12 10 10 11 10 13 19 20 26 21 -4 1 22 18 14 14 13 18 19 18 16 16 21 18 16 15 14 14 15 17 11 7 12 8 12 5 -1 21 16 0 5 5 7 4 5 9 -9 -0 16 6 19 19 4 9 -2 -9 2 7 12 11 4 3 2 10 12 7 14 20 17 13 12 13 6 -1 4 8 8 11
10 13 12 10 12 14 15 16 14 12 10 8 10 10 12 18 20 16 13 4 -8 3 17 13 12 13 11 15 16 16 9 7 17 21 20 13 12 16 8 16 22 10 13 12 13 19 6 4 9 8 6 5 12 3 3 12 -13 -1 15 -17 12 32 -0 10 10 -9 2 3 5 12 10 6 -8 -2 21 13 0 6 12 10 10 18 17 4 1 8 9 7
10 13 13 11 12 14 16 16 11 10 9 8 9 8 15 19 12 13 12 2 1 11 15 12 12 11 13 17 15 19 15 7 9 13 22 19 13 14 -2 3 20 10 11 8 -3 20 35 19 3 7 11 4 13 3 -3 15 -8 -6 21 -10 -4 19 -1 11 13 -7 1 1 0 7 7 13 -5 -14 10 13 4 4 2 4 8 17 26 18 4 2 8 9
9 13 14 12 13 15 17 14 9 9 8 6 7 10 17 10 2 12 13 4 7 11 10 11 14 12 15 18 11 14 22 20 13 6 16 22 16 17 7 4 14 8 14 12 -20 -13 29 35 5 1 14 6 17 17 -5 13 6 -11 18 18 10 19 5 7 12 0 3 0 -2 2 4 13 6 -6 1 5 11 14 4 1 4 13 22 18 13 7 3 6
9 13 14 13 13 16 16 12 8 8 6 4 8 13 14 5 5 16 9 6 12 13 11 8 12 13 11 12 2 3 20 25 23 13 9 20 19 17 16 14 20 17 16 18 -2 -16 2 19 9 1 6 -3 6 26 16 16 6 -17 3 16 13 25 17 6 13 12 12 6 -4 -3 4 10 7 3 2 0 5 11 11 7 1 6 15 11 13 16 10 7
8 12 14 14 14 16 15 10 8 8 4 3 8 12 13 8 11 13 10 13 11 7 10 4 6 14 15 17 9 9 20 17 21 22 10 16 20 16 16 9 15 24 20 18 16 12 6 6 16 15 9 -0 -16 -5 24 31 7 -12 -1 -0 -1 21 21 8 16 18 14 11 0 -3 6 7 5 10 11 2 7 16 13 11 10 4 6 10 7 9 12 12
8 10 14 16 14 16 14 9 9 7 3 4 6 7 8 9 9 7 10 17 7 0 8 4 4 10 10 14 5 4 17 11 13 22 16 20 16 10 17 9 5 13 18 21 14 19 26 15 14 13 7 14 -5 -23 7 30 12 0 7 2 -6 5 13 10 17 20 14 11 4 -2 5 7 2 10 11 -8 6 36 19 3 20 16 5 12 9 7 9 7
8 9 15 17 15 15 13 10 9 6 3 3 7 9 7 10 13 9 11 17 12 8 10 10 15 13 6 11 6 4 13 8 9 16 15 22 14 8 24 22 15 10 4 19 14 6 30 35 27 23 9 12 14 -4 -1 17 18 11 5 1 -7 -5 10 13 11 16 16 15 12 3 1 3 2 9 11 -8 4 38 18 -12 9 20 9 10 6 9 12 5
8 8 14 18 16 14 12 11 8 6 5 2 8 14 9 11 14 4 5 12 11 14 16 15 22 19 6 8 11 13 14 7 13 20 14 17 12 7 18 15 18 20 -1 9 22 -1 5 27 33 35 22 9 12 9 -1 -2 15 26 11 -4 -9 -8 3 7 5 12 15 14 18 16 6 -2 -2 4 4 -9 -7 16 11 -10 -1 9 6 8 5 6 13 8
8 8 14 19 16 13 13 12 8 6 5 2 9 13 6 9 11 4 10 14 10 15 15 8 13 13 2 5 12 14 15 8 13 21 12 12 12 3 11 9 10 19 -4 -4 29 10 -16 4 22 25 25 16 6 9 10 -7 -1 31 31 6 -7 -12 -9 -0 8 12 8 10 19 21 14 5 2 2 1 -3 -4 6 11 0 0 4 0 6 9 3 9 12
9 7 14 19 15 13 14 11 9 7 2 4 13 11 4 8 11 9 13 14 12 13 7 4 12 9 1 12 17 9 13 11 9 18 11 9 15 3 6 19 17 17 -1 -16 10 15 -7 3 20 21 27 29 9 2 17 2 -16 11 36 31 15 -7 -15 -7 5 16 12 8 18 21 13 8 10 9 9 11 10 9 10 3 3 6 -2 1 10 4 3 11
9 8 14 18 14 14 15 10 10 8 1 4 10 7 5 8 9 11 11 12 17 12 6 11 17 10 2 11 15 6 12 15 8 14 6 1 18 9 -0 18 24 27 22 -10 -18 5 10 1 7 20 31 39 23 2 11 12 -11 -19 -2 30 37 11 2 1 -13 -4 11 9 16 23 14 5 6 9 9 10 10 10 12 8 4 7 -2 -5 7 9 2 5
9 9 12 17 15 14 13 11 11 8 2 4 5 2 7 8 7 10 12 14 15 8 9 18 16 11 5 5 9 6 9 13 9 14 8 -0 15 17 4 8 13 24 37 11 -16 -0 14 -2 -0 23 32 36 33 13 3 12 14 -13 -37 -2 32 12 11 29 4 -20 -9 6 14 16 15 14 9 7 8 11 10 4 8 9 3 9 10 0 4 9 6 9
8 10 12 15 16 14 12 12 10 7 8 10 5 3 6 8 7 9 13 17 14 9 14 17 11 9 7 5 12 12 7 7 5 8 13 10 10 14 15 10 5 14 31 24 5 1 7 -1 -4 9 16 20 33 34 16 6 24 21 -21 -21 18 11 -2 21 30 5 -18 -12 11 17 12 13 12 10 7 12 17 7 8 15 8 5 10 6 7 9 7 11
8 11 12 13 15 14 12 13 10 9 13 9 3 2 4 6 7 8 13 17 13 11 16 13 10 15 15 8 9 13 12 10 4 -0 8 12 6 10 23 20 12 17 25 23 17 10 7 -1 -11 -6 5 16 30 42 36 15 21 43 22 -14 -8 11 9 5 18 30 9 -20 -14 9 15 6 3 12 14 12 17 14 10 13 12 2 -3 5 15 12 7 9
9 11 12 12 15 15 13 13 10 7 9 8 3 2 4 6 7 7 12 17 11 8 12 11 9 17 20 12 9 14 16 12 7 2 5 11 6 5 14 15 12 20 21 15 17 24 17 -1 -10 -10 -5 12 24 19 15 7 -3 17 40 22 -9 -8 11 9 -2 16 34 12 -21 -19 11 21 7 8 21 20 11 12 9 7 15 11 -8 -3 14 10 3 6
9 11 13 12 13 16 14 12 12 7 3 7 7 3 3 6 7 7 11 16 12 6 8 9 7 11 15 13 14 19 17 12 7 -0 1 10 9 2 3 5 6 15 16 5 10 32 32 11 3 -5 -17 -1 18 9 7 12 -7 -14 17 39 24 0 2 15 7 -5 13 33 13 -13 -5 17 16 9 19 24 11 8 12 7 12 17 1 -5 8 10 7 5
10 11 13 13 12 16 14 7 13 16 8 7 8 3 2 5 7 8 10 14 14 8 6 5 4 6 7 4 8 13 12 12 12 4 2 10 10 6 8 7 5 13 19 11 6 22 32 21 10 3 -7 -5 7 14 23 25 6 -13 -7 14 26 20 7 12 21 9 -1 10 20 15 1 -6 2 12 18 22 12 4 10 9 6 12 10 1 1 9 12 4
10 11 13 13 11 15 14 3 7 16 10 6 8 5 2 3 5 8 10 13 14 9 6 6 3 2 2 2 5 8 7 7 11 10 9 13 13 10 10 7 5 10 17 18 11 10 21 24 13 6 3 -5 0 17 27 31 25 5 -7 -2 8 19 16 3 5 16 16 5 -1 11 18 1 -8 5 14 19 16 4 5 10 6 6 9 6 2 5 10 8
9 11 12 14 12 12 14 10 9 11 8 7 9 9 5 3 5 7 7 11 13 10 10 10 5 1 3 6 5 7 10 10 13 14 11 12 16 17 14 9 7 10 11 14 18 13 13 20 17 10 3 -7 -4 8 9 17 27 9 -5 -1 -1 7 14 -1 -8 5 16 19 6 -4 6 11 8 7 2 6 15 10 5 6 4 4 5 5 5 8 9 8
8 10 12 15 15 12 11 13 13 9 8 8 9 10 8 3 3 7 7 8 10 11 12 12 10 8 6 7 4 5 10 11 14 17 13 10 13 17 18 12 7 10 12 10 15 18 14 15 17 15 8 -3 -3 6 6 6 12 6 6 11 4 3 3 -7 -2 7 1 8 19 7 -3 1 12 16 5 0 9 10 6 6 5 3 3 1 2 6 9 7
6 8 12 14 14 14 11 12 13 9 7 8 7 10 11 5 2 4 7 9 8 8 10 9 10 12 11 10 9 8 10 8 9 13 14 14 15 15 19 20 13 10 11 8 10 17 18 16 17 15 10 1 -3 5 8 6 9 12 17 21 17 16 12 -4 -4 7 -2 -7 7 12 3 -6 1 16 18 15 15 9 5 6 4 2 3 2 1 2 4 5
7 7 11 12 12 13 11 12 16 14 10 10 9 9 9 7 6 2 2 8 9 8 9 8 6 8 8 9 10 10 11 11 10 11 11 10 11 11 13 18 19 13 10 11 11 12 15 17 18 16 11 5 2 6 7 3 7 10 12 18 18 20 28 16 -0 4 6 -2 -1 9 8 0 -2 2 4 8 14 13 10 9 7 4 2 0 1 3 3 2
9 6 8 12 14 14 14 14 14 9 6 8 9 9 9 6 6 6 2 4 7 7 9 11 11 10 8 6 6 7 6 6 8 10 9 7 9 13 12 12 17 19 14 11 12 13 14 17 20 18 13 8 1 0 6 8 6 3 6 12 4 3 21 22 10 13 13 5 7 11 8 8 12 8 0 7 21 19 9 7 8 9 6 1 0 2 3 3
9 6 7 12 13 13 14 15 14 11 11 13 8 6 10 8 5 7 6 3 4 5 5 8 11 13 14 12 11 11 8 6 7 6 4 4 6 12 14 11 15 24 22 13 11 14 14 16 22 20 16 16 12 2 2 8 10 5 7 13 7 3 11 11 6 10 11 10 15 15 9 6 10 15 12 12 23 24 12 6 7 9 9 4 -1 -1 1 2
10 7 7 8 9 11 12 14 16 12 10 19 20 11 7 8 7 7 8 5 3 4 4 5 7 7 9 12 12 14 14 14 16 15 11 10 9 8 9 10 14 23 27 19 12 11 12 16 21 20 14 13 16 12 3 2 7 7 5 11 17 19 19 17 12 4 0 8 10 8 16 11 -0 7 12 4 9 18 16 12 8 7 12 9 0 -1 1 2
Height
5890 5889 5888 5887 5886 5886 5885 5884 5884 5883 5882 5882 5881 5881 5880 5880 5879 5879 5879 5879 5879 5879 5879 5879 5880 5880 5881 5881 5882 5883 5884 5885 5886 5886 5888 5890 5892 5893 5894 5894 5894 5895 5896 5896 5897 5897 5899 5900 5902 5903 5904 5905 5905 5905 5905 5905 5904 5904 5904 5904 5904 5903 5903 5905 5904 5902 5903 5902 5902 5903 5904 5906 5907 5907 5907 5908 5909 5909 5909 5910 5910 5911 5911 5911 5912 5912 5912 5913
5888 5888 5887 5886 5885 5884 5883 5883 5882 5881 5881 5880 5880 5879 5879 5878 5878 5877 5877 5877 5877 5877 5877 5877 5878 5878 5878 5879 5880 5881 5882 5882 5883 5884 5886 5888 5890 5891 5891 5891 5892 5893 5894 5894 5895 5896 5897 5900 5901 5902 5903 5904 5904 5905 5905 5904 5904 5904 5904 5903 5902 5903 5903 5904 5902 5900 5900 5899 5899 5901 5903 5905 5906 5906 5907 5908 5909 5910 5910 5911 5911 5911 5912 5912 5912 5913 5913 5914
5887 5886 5885 5884 5883 5882 5881 5881 5880 5879 5878 5878 5877 5877 5877 5876 5876 5875 5875 5875 5875 5875 5875 5875 5875 5876 5876 5877 5877 5878 5879 5879 5880 5882 5884 5886 5887 5888 5889 5889 5890 5891 5892 5892 5893 5894 5896 5898 5900 5901 5902 5903 5904 5904 5904 5904 5904 5903 5904 5903 5902 5902 5903 5903 5902 5900 5898 5897 5898 5901 5903 5904 5905 5906 5907 5908 5909 5910 5910 5911 5912 5912 5912 5913 5913 5914 5914 5915
5886 5885 5883 5882 5882 5881 5879 5878 5877 5877 5876 5875 5875 5874 5874 5874 5874 5873 5873 5873 5873 5872 5872 5873 5873 5873 5874 5874 5874 5875 5876 5876 5878 5880 5882 5884 5885 5885 5886 5888 5889 5889 5890 5891 5892 5893 5895 5897 5898 5899 5901 5902 5903 5903 5904 5904 5903 5903 5904 5904 5903 5903 5904 5903 5901 5900 5897 5895 5898 5900 5903 5904 5905 5906 5907 5908 5909 5910 5911 5912 5912 5912 5913 5913 5913 5914 5915 5916
5884 5883 5882 5880 5879 5878 5877 5876 5875 5874 5873 5873 5872 5871 5871 5871 5871 5871 5870 5870 5870 5870 5870 5870 5870 5871 5871 5872 5872 5873 5873 5872 5875 5877 5879 5881 5882 5882 5884 5886 5887 5888 5889 5890 5891 5892 5893 5895 5896 5898 5899 5901 5902 5902 5903 5903 5903 5903 5904 5903 5902 5903 5904 5903 5901 5899 5896 5894 5897 5900 5903 5905 5906 5907 5908 5909 5910 5911 5911 5912 5913 5913 5913 5913 5913 5914 5915 5916
5882 5881 5879 5878 5877 5876 5875 5874 5873 5872 5871 5870 5869 5868 5868 5868 5867 5867 5867 5867 5867 5867 5867 5867 5867 5868 5868 5869 5869 5870 5869 5869 5873 5874 5876 5879 5878 5879 5882 5884 5885 5886 5887 5888 5889 5890 5891 5893 5894 5896 5898 5899 5900 5901 5902 5902 5903 5903 5903 5903 5902 5904 5904 5903 5902 5900 5896 5896 5899 5902 5904 5905 5906 5907 5908 5909 5910 5911 5912 5913 5914 5914 5914 5914 5914 5915 5916 5917
5880 5879 5877 5876 5874 5873 5872 5871 5870 5869 5868 5867 5866 5865 5865 5864 5864 5864 5863 5863 5863 5863 5863 5863 5864 5864 5865 5865 5866 5867 5865 5866 5871 5870 5872 5876 5875 5877 5879 5882 5883 5884 5885 5886 5887 5888 5889 5891 5892 5894 5896 5898 5899 5900 5901 5901 5902 5902 5903 5903 5904 5904 5904 5903 5903 5902 5900 5900 5901 5903 5904 5906 5907 5908 5909 5910 5911 5912 5913 5913 5914 5914 5915 5915 5915 5916 5917 5918
5878 5876 5875 5873 5872 5871 5869 5868 5867 5866 5865 5864 5863 5862 5861 5861 5860 5860 5860 5859 5859 5859 5859 5860 5860 5861 5862 5862 5863 5863 5861 5864 5867 5867 5869 5872 5872 5874 5877 5879 5881 5881 5883 5884 5885 5886 5887 5889 5891 5892 5895 5897 5898 5899 5900 5901 5901 5902 5903 5904 5904 5904 5904 5904 5903 5903 5902 5902 5903 5904 5905 5905 5907 5908 5909 5910 5911 5912 5913 5914 5914 5915 5915 5916 5916 5917 5918 5918
5876 5875 5873 5871 5870 5868 5867 5866 5864 5863 5862 5861 5860 5859 5858 5857 5857 5856 5856 5855 5855 5855 5856 5856 5856 5857 5857 5858 5859 5857 5857 5862 5863 5864 5866 5868 5869 5871 5874 5876 5878 5879 5880 5881 5883 5884 5885 5888 5889 5890 5893 5895 5897 5898 5899 5900 5900 5901 5902 5903 5903 5903 5904 5904 5904 5903 5903 5903 5904 5904 5905 5906 5907 5908 5909 5910 5911 5912 5913 5914 5915 5915 5916 5916 5917 5917 5918 5919
5874 5873 5871 5869 5868 5866 5865 5863 5862 5860 5859 5858 5856 5855 5854 5854 5853 5852 5852 5851 5851 5851 5852 5852 5852 5852 5852 5854 5853 5852 5855 5859 5859 5861 5863 5864 5866 5869 5871 5873 5875 5876 5878 5879 5880 5882 5883 5885 5886 5889 5892 5894 5895 5896 5898 5898 5899 5900 5900 5901 5902 5902 5903 5904 5904 5904 5904 5905 5905 5906 5907 5906 5907 5909 5909 5911 5911 5912 5913 5914 5915 5916 5916 5917 5918 5918 5918 5919
5872 5871 5869 5867 5865 5864 5862 5860 5859 5857 5855 5854 5852 5851 5851 5850 5849 5848 5848 5847 5847 5847 5847 5847 5848 5848 5848 5849 5847 5849 5853 5854 5855 5858 5859 5860 5862 5865 5868 5870 5872 5874 5875 5877 5878 5879 5881 5883 5885 5888 5890 5892 5894 5895 5896 5897 5898 5899 5900 5900 5901 5902 5903 5903 5903 5904 5906 5908 5907 5908 5909 5908 5909 5910 5910 5910 5911 5912 5913 5914 5915 5916 5916 5917 5918 5919 5919 5920
5870 5869 5867 5865 5863 5861 5859 5857 5855 5853 5852 5850 5849 5847 5846 5846 5845 5844 5843 5843 5842 5842 5842 5842 5843 5843 5844 5843 5843 5846 5848 5848 5852 5854 5854 5856 5858 5861 5864 5866 5869 5871 5872 5874 5875 5877 5879 5882 5884 5885 5887 5891 5893 5894 5895 5896 5897 5899 5899 5899 5900 5901 5902 5902 5902 5903 5906 5907 5907 5908 5909 5910 5910 5910 5911 5911 5911 5912 5913 5914 5915 5916 5916 5917 5918 5919 5920 5920
5868 5866 5864 5862 5860 5858 5856 5854 5852 5850 5848 5846 5845 5843 5842 5841 5840 5839 5838 5837 5837 5837 5837 5837 5838 5838 5838 5839 5840 5842 5843 5845 5848 5849 5850 5853 5855 5858 5861 5863 5866 5868 5870 5872 5873 5875 5877 5880 5881 5882 5886 5889 5891 5893 5894 5895 5896 5898 5898 5898 5900 5900 5901 5901 5901 5903 5905 5906 5906 5907 5908 5909 5910 5911 5911 5912 5912 5912 5913 5914 5915 5916 5917 5918 5919 5919 5920 5921
5866 5864 5861 5859 5857 5855 5852 5850 5848 5846 5844 5842 5841 5839 5837 5836 5835 5834 5833 5833 5832 5832 5832 5832 5833 5833 5833 5835 5836 5837 5839 5841 5843 5845 5847 5849 5851 5854 5857 5860 5863 5865 5867 5869 5872 5874 5876 5878 5879 5882 5885 5887 5889 5891 5893 5894 5896 5897 5898 5898 5899 5899 5900 5901 5901 5902 5904 5904 5905 5906 5907 5909 5910 5911 5911 5912 5912 5912 5913 5915 5915 5916 5917 5917 5919 5919 5920 5921
5863 5861 5859 5856 5854 5851 5849 5847 5845 5843 5841 5839 5837 5835 5833 5832 5830 5829 5828 5828 5827 5827 5827 5828 5828 5828 5829 5830 5832 5833 5835 5837 5838 5841 5843 5845 5848 5850 5853 5857 5859 5862 5865 5867 5870 5872 5873 5875 5877 5880 5883 5885 5887 5890 5892 5894 5895 5896 5897 5898 5898 5899 5900 5899 5900 5902 5903 5904 5904 5905 5907 5908 5908 5910 5911 5912 5912 5913 5913 5915 5916 5917 5917 5917 5918 5919 5920 5921
5861 5858 5856 5853 5851 5848 5846 5843 5841 5839 5837 5835 5833 5831 5830 5828 5826 5825 5824 5824 5823 5823 5823 5824 5824 5824 5825 5826 5828 5829 5830 5832 5835 5837 5839 5841 5844 5847 5850 5853 5856 5859 5862 5864 5867 5868 5869 5871 5874 5876 5879 5883 5886 5888 5891 5893 5894 5895 5896 5897 5897 5898 5899 5898 5899 5902 5903 5903 5903 5904 5905 5907 5908 5909 5910 5911 5912 5913 5913 5914 5916 5917 5917 5918 5918 5919 5920 5921
5858 5856 5853 5850 5848 5845 5843 5840 5838 5836 5834 5832 5830 5828 5827 5825 5823 5822 5821 5821 5820 5820 5820 5820 5821 5821 5822 5823 5824 5825 5827 5830 5832 5834 5836 5838 5841 5844 5847 5850 5853 5856 5859 5861 5863 5865 5866 5868 5870 5873 5877 5881 5884 5886 5889 5891 5893 5894 5895 5896 5896 5896 5897 5897 5898 5900 5902 5902 5902 5902 5903 5906 5908 5908 5909 5911 5912 5913 5913 5914 5915 5917 5917 5918 5918 5919 5920 5921
5856 5853 5851 5848 5845 5842 5840 5838 5836 5833 5831 5830 5828 5826 5824 5823 5821 5820 5819 5819 5818 5818 5818 5818 5818 5818 5819 5820 5821 5822 5824 5826 5828 5830 5833 5835 5838 5841 5844 5847 5850 5853 5856 5858 5860 5863 5864 5866 5868 5871 5875 5878 5880 5883 5887 5890 5892 5893 5894 5895 5895 5895 5896 5896 5897 5898 5900 5901 5901 5902 5903 5905 5906 5907 5908 5910 5911 5912 5913 5913 5915 5916 5917 5918 5919 5919 5920 5921
5854 5851 5848 5845 5842 5840 5837 5835 5833 5831 5829 5828 5826 5824 5822 5821 5820 5819 5818 5818 5817 5817 5816 5816 5817 5817 5817 5818 5819 5820 5821 5823 5825 5827 5830 5832 5835 5838 5840 5844 5847 5850 5853 5855 5858 5861 5862 5864 5867 5868 5871 5875 5878 5882 5886 5888 5888 5890 5892 5893 5893 5894 5895 5896 5896 5897 5898 5900 5901 5901 5902 5903 5904 5906 5908 5909 5910 5911 5912 5912 5914 5915 5916 5917 5918 5920 5920 5921
5851 5848 5846 5843 5840 5837 5835 5833 5831 5829 5827 5826 5824 5823 5821 5819 5819 5818 5817 5816 5816 5815 5815 5815 5815 5815 5815 5816 5817 5818 5819 5821 5823 5825 5827 5830 5832 5835 5838 5841 5844 5847 5850 5852 5854 5857 5859 5862 5864 5865 5870 5874 5878 5882 5883 5883 5884 5886 5889 5891 5891 5892 5893 5895 5895 5896 5897 5898 5900 5900 5900 5901 5903 5904 5906 5907 5909 5910 5911 5912 5913 5914 5916 5917 5918 5919 5920 5921
5849 5846 5843 5840 5837 5835 5832 5831 5829 5827 5826 5824 5823 5821 5820 5818 5817 5817 5816 5815 5815 5814 5814 5814 5814 5814 5814 5814 5815 5816 5817 5819 5821 5823 5825 5827 5830 5832 5835 5838 5841 5844 5847 5848 5851 5854 5857 5860 5861 5865 5869 5873 5877 5879 5878 5879 5882 5885 5887 5889 5890 5891 5892 5893 5894 5894 5895 5896 5897 5898 5899 5899 5900 5902 5903 5905 5908 5910 5910 5911 5912 5914 5915 5916 5917 5918 5920 5920
5847 5844 5841 5838 5835 5833 5831 5828 5827 5825 5824 5823 5821 5820 5819 5818 5817 5816 5815 5814 5813 5813 5812 5812 5812 5812 5812 5812 5813 5814 5815 5817 5818 5820 5822 5825 5827 5829 5831 5835 5838 5841 5843 5845 5848 5852 5855 5857 5859 5863 5867 5871 5874 5874 5873 5877 5881 5883 5885 5887 5890 5890 5890 5892 5893 5893 5893 5895 5896 5896 5897 5898 5899 5900 5902 5903 5906 5908 5909 5909 5911 5912 5913 5914 5915 5917 5918 5920
5845 5842 5839 5836 5834 5831 5829 5827 5825 5824 5823 5821 5820 5819 5818 5817 5816 5815 5814 5813 5812 5811 5811 5810 5810 5810 5810 5811 5811 5812 5814 5815 5816 5818 5820 5822 5824 5826 5830 5833 5836 5838 5840 5842 5847 5851 5854 5856 5858 5862 5865 5868 5871 5870 5872 5876 5879 5880 5883 5888 5891 5890 5889 5890 5890 5891 5893 5894 5894 5894 5896 5897 5899 5900 5901 5902 5903 5905 5907 5908 5909 5911 5912 5913 5914 5916 5917 5919
5842 5840 5837 5834 5832 5830 5827 5825 5824 5823 5821 5820 5819 5818 5817 5816 5815 5814 5813 5812 5811 5810 5809 5809 5809 5808 5809 5809 5810 5811 5812 5813 5814 5816 5818 5820 5822 5825 5828 5831 5833 5835 5837 5841 5846 5849 5852 5853 5856 5861 5862 5863 5866 5868 5871 5874 5877 5879 5881 5888 5891 5888 5887 5887 5887 5890 5892 5892 5893 5894 5895 5897 5898 5899 5899 5899 5901 5903 5905 5907 5909 5911 5912 5913 5913 5914 5916 5918
5841 5838 5835 5833 5831 5828 5826 5824 5823 5822 5821 5819 5818 5818 5817 5815 5814 5813 5812 5810 5809 5809 5808 5808 5807 5807 5807 5808 5809 5809 5811 5812 5812 5814 5816 5818 5820 5823 5825 5827 5831 5833 5836 5841 5843 5846 5849 5850 5853 5856 5856 5859 5864 5867 5869 5871 5875 5879 5880 5883 5886 5884 5883 5884 5886 5889 5890 5892 5892 5893 5895 5896 5897 5897 5898 5898 5900 5902 5904 5906 5908 5909 5910 5912 5913 5914 5916 5917
5839 5836 5834 5832 5830 5827 5825 5823 5822 5821 5820 5819 5818 5817 5816 5815 5813 5812 5811 5810 5809 5808 5807 5807 5807 5806 5806 5807 5808 5809 5810 5811 5811 5813 5815 5816 5819 5821 5823 5826 5830 5832 5834 5838 5840 5844 5847 5846 5848 5851 5853 5858 5863 5865 5867 5869 5874 5879 5881 5881 5880 5879 5880 5882 5885 5888 5889 5890 5891 5893 5894 5895 5895 5897 5898 5898 5899 5900 5902 5904 5906 5908 5909 5911 5912 5914 5915 5917
5837 5835 5833 5831 5828 5826 5824 5823 5821 5820 5819 5819 5818 5817 5816 5814 5813 5812 5811 5811 5811 5809 5808 5807 5807 5806 5806 5806 5807 5808 5810 5810 5811 5812 5813 5816 5818 5820 5823 5825 5828 5829 5831 5835 5839 5842 5843 5841 5844 5849 5852 5857 5860 5862 5864 5867 5871 5875 5878 5880 5878 5878 5880 5882 5884 5886 5887 5888 5889 5891 5893 5893 5895 5896 5897 5897 5898 5899 5900 5902 5904 5906 5908 5910 5911 5913 5914 5916
5836 5834 5831 5829 5827 5825 5823 5822 5821 5820 5819 5819 5818 5817 5815 5814 5813 5812 5812 5813 5812 5810 5809 5808 5807 5806 5806 5806 5807 5807 5808 5809 5810 5811 5812 5815 5817 5819 5822 5824 5826 5828 5830 5836 5840 5841 5839 5839 5844 5849 5851 5855 5857 5860 5863 5864 5868 5871 5872 5873 5874 5876 5879 5881 5882 5884 5885 5886 5888 5891 5891 5893 5894 5894 5895 5896 5897 5898 5899 5901 5903 5905 5906 5908 5910 5912 5913 5915
5835 5833 5830 5829 5827 5825 5823 5821 5820 5820 5819 5818 5818 5817 5815 5814 5814 5813 5813 5814 5812 5810 5809 5808 5807 5806 5806 5806 5806 5807 5808 5808 5809 5810 5812 5814 5816 5818 5820 5822 5824 5826 5829 5834 5838 5839 5838 5838 5843 5847 5849 5853 5855 5858 5861 5862 5866 5868 5867 5868 5870 5873 5876 5878 5880 5883 5883 5885 5888 5889 5891 5892 5893 5892 5894 5895 5896 5897 5899 5901 5903 5903 5904 5906 5908 5910 5912 5914
5834 5832 5830 5828 5826 5824 5822 5821 5820 5820 5819 5818 5817 5816 5815 5815 5814 5814 5815 5814 5812 5810 5809 5808 5807 5807 5806 5806 5807 5807 5808 5808 5808 5810 5811 5813 5815 5817 5819 5820 5822 5824 5828 5832 5833 5834 5834 5835 5839 5842 5846 5850 5852 5856 5859 5860 5863 5863 5863 5867 5871 5873 5875 5877 5880 5881 5881 5884 5887 5888 5889 5891 5891 5890 5892 5894 5896 5896 5898 5901 5902 5902 5903 5904 5907 5909 5911 5913
5833 5831 5829 5827 5825 5823 5822 5821 5820 5819 5819 5818 5817 5816 5815 5815 5815 5815 5815 5814 5812 5811 5810 5808 5808 5807 5807 5808 5809 5808 5808 5808 5808 5809 5811 5813 5815 5817 5819 5821 5823 5825 5828 5831 5831 5830 5832 5834 5837 5840 5844 5846 5850 5855 5856 5857 5859 5859 5862 5867 5870 5873 5875 5876 5878 5878 5880 5883 5886 5887 5888 5889 5890 5890 5890 5892 5894 5896 5897 5899 5901 5901 5902 5903 5905 5907 5910 5911
5832 5830 5828 5826 5824 5823 5822 5821 5820 5819 5818 5818 5817 5816 5815 5815 5816 5817 5815 5813 5812 5811 5811 5809 5808 5808 5807 5809 5811 5810 5810 5809 5809 5810 5811 5812 5814 5816 5818 5820 5822 5825 5828 5831 5830 5830 5831 5833 5836 5840 5843 5844 5846 5851 5853 5854 5857 5858 5862 5866 5868 5873 5875 5875 5876 5877 5879 5883 5884 5885 5886 5887 5888 5889 5890 5891 5893 5894 5896 5897 5899 5900 5901 5903 5905 5906 5908 5910
5831 5829 5827 5825 5824 5822 5821 5820 5819 5819 5818 5818 5817 5817 5816 5817 5817 5817 5815 5813 5812 5811 5810 5809 5809 5809 5808 5810 5811 5810 5810 5809 5809 5810 5811 5812 5813 5815 5817 5818 5821 5824 5826 5829 5831 5832 5831 5833 5836 5839 5841 5841 5844 5848 5852 5855 5857 5859 5863 5865 5867 5872 5875 5874 5876 5877 5879 5882 5883 5884 5884 5885 5886 5887 5890 5891 5892 5892 5894 5896 5898 5899 5900 5901 5904 5905 5906 5908
5830 5828 5826 5824 5823 5822 5821 5820 5819 5818 5818 5818 5817 5817 5817 5818 5817 5816 5815 5812 5811 5810 5810 5809 5810 5809 5809 5811 5811 5809 5809 5809 5809 5811 5811 5811 5813 5814 5815 5818 5820 5822 5824 5826 5831 5834 5834 5834 5835 5837 5838 5839 5842 5847 5851 5854 5856 5858 5862 5864 5866 5871 5874 5875 5877 5879 5880 5881 5882 5882 5882 5883 5884 5886 5889 5890 5890 5890 5892 5895 5896 5897 5898 5899 5902 5904 5904 5906
5828 5827 5825 5823 5822 5821 5820 5819 5818 5818 5818 5818 5817 5817 5817 5817 5816 5816 5815 5811 5810 5810 5810 5809 5809 5810 5811 5811 5810 5809 5809 5809 5809 5810 5811 5811 5812 5814 5815 5816 5818 5821 5822 5824 5828 5831 5835 5836 5833 5833 5836 5837 5840 5846 5848 5851 5855 5857 5859 5861 5863 5867 5872 5875 5876 5878 5881 5881 5881 5880 5880 5881 5882 5884 5887 5888 5888 5888 5890 5891 5892 5893 5896 5897 5899 5901 5902 5904
5827 5825 5824 5823 5821 5820 5819 5819 5818 5817 5818 5817 5816 5817 5817 5816 5815 5813 5812 5810 5810 5810 5809 5809 5810 5812 5813 5810 5809 5810 5809 5808 5809 5809 5810 5811 5811 5812 5813 5814 5815 5818 5819 5821 5825 5827 5832 5834 5830 5831 5834 5834 5839 5844 5845 5849 5855 5857 5857 5858 5861 5865 5869 5872 5874 5875 5876 5878 5878 5878 5879 5880 5880 5882 5883 5884 5885 5886 5888 5889 5888 5889 5893 5896 5897 5899 5900 5902
5826 5824 5823 5822 5820 5819 5819 5818 5817 5817 5817 5816 5816 5816 5816 5815 5813 5812 5810 5809 5810 5809 5809 5810 5811 5812 5813 5811 5809 5810 5808 5808 5808 5808 5809 5810 5810 5810 5812 5812 5813 5815 5816 5819 5823 5824 5826 5829 5828 5829 5831 5833 5837 5841 5842 5847 5853 5855 5857 5860 5860 5862 5864 5868 5872 5873 5874 5875 5875 5876 5878 5879 5879 5880 5881 5882 5883 5885 5886 5887 5887 5887 5890 5893 5895 5896 5898 5900
5825 5823 5822 5821 5819 5819 5818 5817 5817 5816 5816 5816 5816 5815 5814 5813 5812 5811 5810 5809 5809 5808 5809 5811 5811 5810 5812 5812 5810 5810 5808 5807 5808 5808 5808 5809 5809 5810 5811 5812 5812 5813 5814 5818 5821 5822 5824 5827 5828 5827 5830 5831 5834 5839 5840 5844 5848 5851 5855 5858 5859 5860 5862 5863 5866 5870 5873 5874 5875 5875 5877 5879 5879 5878 5879 5880 5882 5883 5883 5885 5886 5886 5887 5889 5893 5894 5896 5898
5824 5822 5821 5820 5818 5818 5817 5816 5816 5816 5816 5816 5815 5814 5813 5813 5811 5810 5809 5808 5808 5808 5808 5810 5809 5808 5810 5809 5809 5809 5808 5807 5808 5808 5808 5809 5809 5808 5809 5810 5810 5811 5813 5816 5818 5821 5823 5826 5827 5828 5830 5830 5832 5836 5839 5842 5845 5847 5849 5852 5855 5859 5862 5863 5864 5867 5871 5874 5875 5876 5877 5877 5877 5876 5877 5878 5880 5881 5882 5883 5884 5886 5886 5887 5890 5893 5895 5897
5822 5821 5820 5818 5817 5817 5816 5815 5815 5815 5816 5816 5815 5813 5813 5812 5811 5810 5809 5808 5807 5807 5807 5807 5807 5808 5808 5807 5807 5808 5807 5806 5808 5808 5808 5808 5808 5808 5807 5808 5808 5809 5811 5814 5817 5820 5822 5824 5825 5827 5829 5829 5831 5834 5837 5840 5843 5845 5847 5850 5853 5856 5859 5860 5862 5864 5868 5872 5874 5876 5876 5874 5873 5874 5876 5876 5877 5879 5881 5882 5882 5884 5886 5887 5888 5891 5894 5896
5821 5819 5818 5817 5816 5815 5815 5814 5814 5814 5814 5814 5813 5813 5812 5811 5810 5809 5808 5808 5807 5807 5806 5806 5806 5806 5806 5806 5806 5806 5805 5805 5806 5807 5808 5807 5807 5806 5806 5806 5807 5808 5810 5814 5817 5818 5818 5820 5823 5825 5827 5829 5830 5832 5837 5841 5842 5843 5846 5850 5852 5855 5857 5859 5861 5863 5865 5868 5871 5875 5875 5872 5872 5874 5875 5875 5875 5877 5880 5881 5880 5880 5884 5887 5887 5888 5892 5894
5819 5818 5817 5816 5815 5814 5814 5813 5813 5813 5813 5812 5812 5812 5811 5810 5810 5809 5808 5807 5807 5806 5806 5806 5805 5805 5805 5805 5805 5804 5805 5805 5806 5807 5806 5805 5805 5805 5804 5805 5806 5807 5809 5813 5814 5813 5814 5817 5820 5821 5824 5826 5827 5829 5833 5836 5838 5841 5844 5847 5849 5853 5855 5857 5860 5863 5864 5866 5868 5872 5872 5870 5869 5872 5873 5874 5874 5875 5877 5879 5879 5878 5880 5885 5887 5887 5889 5891
5818 5817 5816 5815 5814 5813 5813 5812 5812 5812 5811 5811 5811 5811 5810 5810 5809 5808 5808 5807 5806 5806 5806 5805 5805 5805 5804 5804 5804 5804 5804 5805 5805 5806 5805 5804 5803 5804 5804 5804 5805 5806 5808 5810 5810 5810 5813 5815 5817 5819 5820 5822 5824 5826 5828 5831 5835 5839 5844 5846 5848 5851 5854 5856 5859 5861 5864 5866 5868 5869 5869 5867 5867 5868 5870 5872 5873 5874 5876 5877 5878 5877 5877 5881 5886 5887 5887 5889
5816 5815 5814 5813 5813 5812 5811 5812 5813 5811 5809 5810 5810 5810 5810 5809 5809 5808 5807 5806 5806 5805 5805 5805 5805 5805 5804 5804 5804 5804 5804 5804 5804 5804 5803 5803 5803 5803 5803 5804 5804 5805 5806 5807 5808 5809 5811 5812 5814 5817 5819 5822 5823 5824 5827 5830 5833 5837 5842 5846 5847 5849 5852 5855 5858 5859 5860 5863 5866 5868 5868 5866 5865 5867 5869 5870 5871 5872 5874 5876 5877 5877 5877 5879 5883 5885 5886 5888
5814 5813 5813 5812 5811 5811 5809 5810 5811 5809 5808 5809 5809 5809 5809 5808 5808 5807 5807 5806 5805 5805 5804 5804 5804 5804 5804 5804 5804 5804 5804 5804 5803 5803 5803 5802 5802 5802 5803 5803 5803 5804 5804 5805 5806 5808 5809 5810 5812 5814 5817 5820 5821 5821 5824 5827 5829 5834 5840 5842 5842 5843 5846 5849 5853 5854 5854 5857 5861 5865 5866 5863 5863 5866 5867 5868 5869 5871 5873 5874 5875 5877 5877 5878 5879 5882 5885 5886
5813 5812 5811 5810 5810 5809 5808 5808 5808 5807 5807 5807 5808 5807 5808 5807 5807 5806 5806 5805 5804 5804 5804 5804 5804 5804 5804 5804 5804 5804 5803 5803 5802 5802 5802 5801 5801 5801 5802 5802 5802 5803 5803 5804 5805 5806 5807 5808 5811 5812 5814 5816 5817 5818 5821 5823 5826 5831 5833 5834 5835 5838 5841 5844 5846 5848 5851 5854 5857 5859 5859 5858 5860 5863 5864 5865 5866 5868 5871 5872 5873 5875 5877 5877 5878 5880 5882 5883
5811 5810 5809 5808 5808 5807 5807 5806 5806 5806 5806 5806 5806 5806 5806 5806 5806 5805 5805 5804 5804 5803 5803 5803 5803 5803 5803 5803 5803 5803 5802 5802 5801 5801 5801 5800 5800 5800 5801 5801 5801 5801 5802 5803 5803 5804 5805 5807 5809 5810 5812 5814 5815 5817 5819 5821 5823 5825 5826 5828 5832 5835 5838 5839 5841 5844 5847 5851 5853 5855 5856 5856 5858 5859 5860 5862 5864 5866 5868 5870 5871 5873 5875 5876 5877 5879 5879 5880
5810 5808 5808 5807 5806 5805 5805 5804 5804 5804 5804 5804 5804 5804 5804 5804 5804 5804 5803 5803 5803 5803 5802 5802 5802 5802 5802 5802 5802 5801 5801 5800 5800 5799 5799 5799 5799 5799 5799 5799 5800 5800 5801 5801 5801 5802 5803 5805 5807 5809 5811 5812 5814 5816 5818 5820 5822 5823 5824 5826 5828 5831 5834 5836 5839 5842 5843 5845 5847 5850 5852 5854 5854 5854 5856 5859 5862 5864 5866 5867 5869 5871 5873 5874 5876 5877 5878 5879
5807 5806 5806 5805 5804 5803 5803 5802 5802 5802 5802 5802 5803 5803 5803 5803 5802 5802 5802 5802 5802 5802 5801 5801 5801 5801 5801 5801 5800 5800 5799 5799 5798 5798 5798 5798 5798 5798 5798 5798 5798 5798 5799 5799 5800 5801 5802 5803 5804 5806 5808 5810 5812 5814 5816 5818 5819 5820 5822 5823 5824 5827 5830 5832 5835 5837 5837 5840 5844 5846 5849 5850 5850 5851 5853 5857 5859 5861 5862 5864 5866 5869 5871 5872 5874 5875 5877 5878
5805 5804 5804 5803 5802 5801 5801 5801 5801 5800 5800 5800 5801 5801 5801 5801 5801 5801 5801 5801 5801 5801 5800 5800 5800 5800 5800 5800 5799 5799 5798 5798 5798 5798 5798 5797 5797 5796 5796 5796 5796 5797 5797 5798 5799 5800 5801 5801 5803 5804 5806 5808 5810 5812 5814 5815 5816 5817 5819 5820 5822 5824 5826 5828 5831 5832 5834 5838 5841 5844 5845 5846 5847 5849 5851 5853 5856 5858 5860 5861 5863 5866 5868 5870 5872 5873 5875 5876
5803 5803 5802 5801 5800 5799 5799 5799 5799 5799 5799 5798 5798 5798 5799 5799 5799 5799 5800 5800 5800 5800 5799 5799 5799 5799 5799 5798 5798 5798 5798 5797 5797 5797 5797 5797 5796 5796 5796 5795 5795 5795 5795 5796 5797 5798 5799 5800 5801 5803 5805 5806 5808 5810 5812 5813 5814 5815 5817 5819 5820 5822 5823 5825 5827 5828 5831 5835 5838 5840 5841 5842 5845 5847 5848 5849 5852 5854 5856 5859 5861 5864 5866 5868 5869 5871 5872 5874
5801 5800 5800 5799 5798 5798 5797 5797 5797 5798 5798 5796 5795 5796 5797 5797 5797 5798 5798 5798 5798 5798 5798 5798 5798 5798 5798 5797 5797 5797 5797 5797 5796 5796 5796 5796 5796 5795 5795 5794 5794 5793 5794 5795 5796 5797 5798 5798 5799 5800 5802 5804 5805 5807 5809 5810 5812 5814 5817 5818 5818 5819 5821 5823 5824 5825 5829 5831 5834 5837 5838 5839 5842 5844 5845 5845 5847 5850 5853 5856 5858 5861 5863 5865 5867 5868 5869 5871